KD5BIG-13 Weather Reports


time (UTC)temp
C
wind
direction
speed
KPH
gust
KPH
rain 1hr
cm
rain 24hr
cm
rain mn
cm
humidity
%
barometer
mb
20260510104506 18 242 0.0 3.2 0.00 0.00 0.00 99 1018.2
20260510104003 18 238 3.2 3.2 0.00 0.00 0.00 99 1018.2
20260510103500 18 246 3.2 3.2 0.00 0.00 0.00 99 1018.3
20260510102955 18 259 1.6 3.2 0.00 0.00 0.00 99 1018.2
20260510102451 18 288 1.6 3.2 0.00 0.00 0.00 99 1018.2
20260510101948 18 235 3.2 3.2 0.00 0.00 0.00 99 1018.3
20260510101446 18 262 0.0 3.2 0.00 0.00 0.00 99 1018.5
20260510100944 18 264 1.6 1.6 0.00 0.00 0.00 99 1018.2
20260510100440 18 259 3.2 4.8 0.00 0.00 0.00 99 1018.1
20260510095937 18 235 1.6 3.2 0.00 0.00 0.00 99 1018.1
20260510095432 18 269 0.0 0.0 0.00 0.00 0.00 99 1017.9
20260510094931 18 220 1.6 3.2 0.00 0.00 0.00 99 1017.9
20260510094426 18 218 1.6 3.2 0.00 0.00 0.00 99 1017.9
20260510093923 18 223 3.2 3.2 0.00 0.00 0.00 99 1018.0
20260510093418 18 212 1.6 3.2 0.00 0.00 0.00 99 1017.7
20260510092915 18 214 1.6 3.2 0.00 0.00 0.00 99 1017.6
20260510092413 18 281 6.4 6.4 0.00 0.00 0.00 99 1017.5
20260510091912 18 251 0.0 4.8 0.00 0.00 0.00 99 1017.5
20260510091409 18 79 0.0 3.2 0.00 0.00 0.00 99 1017.5
20260510090906 18 251 0.0 3.2 0.00 0.00 0.00 99 1017.5
20260510090403 18 220 0.0 3.2 0.00 0.00 0.00 98 1017.6
20260510085859 18 288 0.0 1.6 0.00 0.00 0.00 98 1017.3
20260510085354 18 269 0.0 0.0 0.00 0.00 0.00 98 1017.3
20260510084849 18 251 0.0 3.2 0.00 0.00 0.00 98 1017.4
20260510084347 18 221 3.2 3.2 0.00 0.00 0.00 98 1017.2
20260510083844 18 218 1.6 3.2 0.00 0.00 0.00 98 1017.1
20260510083340 18 239 3.2 3.2 0.00 0.00 0.00 98 1017.5
20260510082836 18 211 3.2 3.2 0.00 0.00 0.00 98 1017.3
20260510082333 18 203 4.8 6.4 0.00 0.00 0.00 98 1017.2
20260510081832 18 237 0.0 3.2 0.00 0.00 0.00 98 1017.3
20260510081328 18 254 1.6 3.2 0.00 0.00 0.00 98 1017.2
20260510080824 18 297 0.0 3.2 0.00 0.00 0.00 98 1017.1
20260510080319 18 228 1.6 3.2 0.00 0.00 0.00 98 1017.0
20260510075816 18 206 0.0 3.2 0.00 0.00 0.00 98 1017.2
20260510075314 18 252 1.6 1.6 0.00 0.00 0.00 98 1016.9
20260510074810 18 233 3.2 3.2 0.00 0.00 0.00 98 1017.0
20260510074307 18 228 3.2 3.2 0.00 0.00 0.00 98 1017.2
20260510073803 18 221 4.8 6.4 0.00 0.00 0.00 98 1017.0
20260510073259 18 237 3.2 3.2 0.00 0.00 0.00 98 1017.0
20260510072755 18 235 3.2 4.8 0.00 0.00 0.00 98 1017.0
20260510072252 18 250 1.6 3.2 0.00 0.00 0.00 98 1016.8
20260510071748 18 243 3.2 3.2 0.00 0.00 0.00 98 1016.8
20260510071245 18 269 0.0 1.6 0.00 0.00 0.00 98 1016.8
20260510070744 18 227 3.2 3.2 0.00 0.00 0.00 98 1016.9
20260510070241 18 203 1.6 3.2 0.00 0.00 0.00 97 1016.9
20260510065740 18 246 3.2 3.2 0.00 0.00 0.00 97 1016.8
20260510065237 18 226 3.2 3.2 0.00 0.00 0.00 97 1016.9
20260510064734 18 224 1.6 3.2 0.00 0.00 0.00 97 1017.0
20260510064232 18 256 0.0 1.6 0.00 0.00 0.00 97 1016.8
20260510063728 18 253 0.0 1.6 0.00 0.00 0.00 97 1016.8
20260510063224 18 259 1.6 1.6 0.00 0.00 0.00 97 1017.0
20260510062721 18 248 0.0 3.2 0.00 0.00 0.00 97 1017.1
20260510062217 18 304 1.6 3.2 0.00 0.00 0.00 97 1016.9
20260510061712 18 282 0.0 3.2 0.00 0.00 0.00 97 1017.0
20260510061210 18 291 0.0 0.0 0.00 0.00 0.00 97 1016.7
20260510060706 18 265 0.0 1.6 0.00 0.00 0.00 97 1017.0
20260510060203 18 246 0.0 3.2 0.00 0.00 0.00 97 1016.9
20260510055659 18 248 1.6 1.6 0.00 0.00 0.00 97 1017.1
20260510055157 18 306 0.0 3.2 0.00 0.00 0.00 97 1016.9
20260510054652 18 267 1.6 4.8 0.00 0.00 0.00 97 1017.1
20260510054148 19 249 1.6 1.6 0.00 0.00 0.00 97 1017.2
20260510053647 19 194 3.2 4.8 0.00 0.00 0.00 97 1017.2
20260510053144 19 220 0.0 6.4 0.00 0.00 0.00 97 1017.1
20260510052640 19 187 0.0 3.2 0.00 0.00 0.00 97 1017.0
20260510052136 19 196 0.0 0.0 0.00 0.00 0.00 97 1017.1
20260510051632 19 183 3.2 9.7 0.00 0.00 0.00 97 1017.3
20260510051129 19 234 0.0 6.4 0.00 0.00 0.00 97 1017.0
20260510050627 19 285 1.6 1.6 0.00 0.00 0.00 97 1017.2
20260510050123 19 217 3.2 3.2 0.00 0.00 0.00 97 1016.9
20260510045620 19 312 0.0 3.2 0.00 2.92 2.92 97 1017.0
20260510045117 19 290 4.8 4.8 0.00 2.92 2.92 97 1016.9
20260510044613 19 228 8.0 9.7 0.00 2.92 2.92 97 1017.0
20260510044110 19 226 0.0 4.8 0.00 2.92 2.92 97 1017.2
20260510043606 19 207 4.8 4.8 0.00 2.92 2.92 97 1017.4
20260510043102 19 203 1.6 4.8 0.00 2.92 2.92 97 1017.2
20260510042601 19 275 0.0 3.2 0.00 2.92 2.92 97 1017.1
20260510042056 19 303 3.2 3.2 0.00 2.92 2.92 97 1017.2
20260510041554 19 229 3.2 4.8 0.00 2.92 2.92 97 1017.2
20260510041051 19 239 0.0 4.8 0.00 2.92 2.92 97 1017.2
20260510040548 19 233 0.0 4.8 0.00 2.92 2.92 97 1017.1
20260510040043 19 294 4.8 4.8 0.00 2.92 2.92 97 1017.3
20260510035540 19 232 0.0 3.2 0.00 2.92 2.92 97 1017.4
20260510035039 19 335 0.0 6.4 0.00 2.92 2.92 97 1017.2
20260510034538 19 226 0.0 4.8 0.00 2.92 2.92 97 1017.5
20260510034035 19 180 1.6 3.2 0.00 2.92 2.92 97 1017.4
20260510033530 19 248 4.8 6.4 0.00 2.92 2.92 97 1017.3
20260510033029 19 184 1.6 3.2 0.00 2.92 2.92 97 1017.5
20260510032525 19 214 4.8 6.4 0.00 2.92 2.92 97 1017.2
20260510032020 19 212 1.6 3.2 0.00 2.92 2.92 98 1017.1
20260510031516 19 255 4.8 6.4 0.00 2.92 2.92 98 1016.9
20260510031012 19 262 0.0 4.8 0.00 2.92 2.92 98 1016.9
20260510030508 19 290 3.2 4.8 0.00 2.92 2.92 98 1017.1
20260510030005 19 277 3.2 6.4 0.00 2.92 2.92 98 1017.0
20260510025502 19 310 3.2 3.2 0.00 2.92 2.92 98 1016.6
20260510025000 19 216 0.0 1.6 0.00 2.92 2.92 98 1016.8
20260510024456 19 311 0.0 1.6 0.00 2.92 2.92 98 1017.0
20260510023952 19 269 0.0 3.2 0.00 2.92 2.92 98 1016.8
20260510023448 19 283 0.0 0.0 0.00 2.92 2.92 98 1017.0
20260510022945 19 283 0.0 1.6 0.00 2.92 2.92 98 1016.9
20260510022444 19 312 3.2 3.2 0.00 2.92 2.92 98 1016.9
20260510021943 19 250 3.2 3.2 0.00 2.92 2.92 98 1016.9
20260510021442 19 250 0.0 1.6 0.00 2.92 2.92 98 1016.8
20260510020939 19 307 1.6 3.2 0.00 2.92 2.92 98 1016.8
20260510020438 19 273 1.6 3.2 0.00 2.92 2.92 98 1017.0
20260510015934 19 307 3.2 3.2 0.00 2.92 2.92 98 1016.6
20260510015431 19 272 1.6 3.2 0.00 2.92 2.92 98 1016.4
20260510014925 19 302 3.2 3.2 0.00 2.92 2.92 98 1016.4
20260510014423 19 308 3.2 3.2 0.00 2.92 2.92 97 1016.3
20260510013919 19 299 1.6 3.2 0.00 2.92 2.92 97 1016.1
20260510013414 19 299 3.2 3.2 0.00 2.92 2.92 97 1016.0
20260510012910 20 299 3.2 3.2 0.00 2.92 2.92 97 1016.1
20260510012406 20 295 1.6 3.2 0.00 2.92 2.92 97 1015.8
20260510011900 20 302 3.2 3.2 0.00 2.92 2.92 97 1015.9
20260510011355 20 244 1.6 3.2 0.00 2.92 2.92 97 1015.9
20260510010852 20 243 1.6 1.6 0.00 2.92 2.92 96 1015.6
20260510010349 20 234 3.2 3.2 0.00 2.92 2.92 96 1015.7
20260510005846 20 305 3.2 3.2 0.00 2.92 2.92 96 1015.3
20260510005342 20 287 1.6 4.8 0.00 2.92 2.92 96 1015.6
20260510004840 20 305 3.2 3.2 0.00 2.92 2.92 95 1015.5
20260510004337 20 317 3.2 3.2 0.00 2.92 2.92 95 1015.4
20260510003835 20 326 3.2 3.2 0.00 2.92 2.92 94 1015.6
20260510003332 20 225 3.2 3.2 0.00 2.92 2.92 94 1015.6
20260510002830 20 256 1.6 1.6 0.00 2.92 2.92 93 1015.4
20260510002328 20 286 1.6 3.2 0.00 2.92 2.92 93 1015.6
20260510001824 20 234 0.0 3.2 0.00 2.92 2.92 93 1015.5
20260510001323 20 282 0.0 0.0 0.00 2.92 2.92 93 1015.6
20260510000818 20 300 1.6 3.2 0.00 2.92 2.92 92 1015.5
20260510000318 21 8 1.6 1.6 0.00 2.92 2.92 92 1015.5
20260509235813 21 243 3.2 3.2 0.00 2.92 2.92 92 1015.5
20260509235309 21 210 1.6 3.2 0.00 2.92 2.92 91 1015.4
20260509234805 21 197 1.6 1.6 0.00 2.92 2.92 91 1015.4
20260509234302 21 332 0.0 1.6 0.00 2.92 2.92 91 1015.4
20260509233800 21 139 0.0 6.4 0.00 2.92 2.92 90 1015.3
20260509233257 21 227 0.0 1.6 0.00 2.92 2.92 91 1015.5
20260509232753 21 232 3.2 3.2 0.00 2.92 2.92 90 1015.5
20260509232251 21 193 3.2 3.2 0.00 2.92 2.92 90 1015.4
20260509231747 21 216 6.4 8.0 0.00 2.92 2.92 90 1015.4
20260509231244 21 172 1.6 8.0 0.00 2.92 2.92 90 1015.5
20260509230741 21 163 1.6 3.2 0.00 2.92 2.92 91 1015.4
20260509230238 21 229 3.2 4.8 0.00 2.92 2.92 91 1015.0
20260509225733 21 190 1.6 3.2 0.00 2.92 2.92 91 1015.2
20260509225230 21 201 0.0 4.8 0.00 2.92 2.92 91 1015.4
20260509224725 21 180 1.6 9.7 0.00 2.92 2.92 91 1015.3
20260509224223 21 182 6.4 17.7 0.00 2.92 2.92 90 1015.5
20260509223720 21 187 4.8 8.0 0.00 2.92 2.92 90 1015.2
20260509223217 21 201 0.0 9.7 0.00 2.92 2.92 90 1015.1
20260509222713 21 178 4.8 12.9 0.00 2.92 2.92 89 1015.2
20260509222209 21 211 8.0 14.5 0.00 2.92 2.92 90 1015.0
20260509221705 21 211 8.0 9.7 0.00 2.92 2.92 90 1014.8
20260509221201 21 303 3.2 4.8 0.00 2.92 2.92 91 1014.7
20260509220657 21 221 12.9 12.9 0.00 2.92 2.92 92 1014.9
20260509220154 21 169 4.8 11.3 0.00 2.92 2.92 91 1015.3
20260509215649 21 183 4.8 9.7 0.00 2.92 2.92 93 1014.9
20260509215147 20 221 8.0 8.0 0.00 2.92 2.92 93 1014.9
20260509214643 20 173 3.2 9.7 0.00 2.92 2.92 93 1015.0
20260509214140 21 185 4.8 12.9 0.00 2.92 2.92 92 1014.8
20260509213637 21 176 1.6 8.0 0.00 2.92 2.92 93 1015.0
20260509213133 21 208 4.8 6.4 0.05 2.92 2.92 92 1015.0
20260509212631 21 240 4.8 8.0 0.05 2.92 2.92 91 1015.3
20260509212127 21 330 4.8 6.4 0.00 2.90 2.90 92 1015.2
20260509211623 21 230 3.2 4.8 0.00 2.90 2.90 91 1015.2
20260509211120 21 219 6.4 14.5 0.00 2.90 2.90 90 1015.5
20260509210617 21 180 4.8 8.0 0.00 2.90 2.90 90 1015.0
20260509210114 21 180 8.0 8.0 0.00 2.90 2.90 90 1015.2
20260509205608 21 197 3.2 8.0 0.00 2.90 2.90 90 1015.1
20260509205103 22 231 6.4 8.0 0.00 2.90 2.90 90 1015.1
20260509204559 22 296 3.2 6.4 0.00 2.90 2.90 91 1015.0
20260509204056 22 188 3.2 8.0 0.00 2.90 2.90 90 1014.9
20260509203552 22 196 3.2 9.7 0.00 2.90 2.90 90 1014.8
20260509203051 22 219 3.2 4.8 0.00 2.90 2.90 89 1014.7
20260509202550 22 192 3.2 8.0 0.00 2.90 2.90 88 1014.8
20260509202046 22 223 4.8 4.8 0.00 2.90 2.90 89 1015.1
20260509201541 23 226 3.2 6.4 0.00 2.90 2.90 88 1015.1
20260509201040 23 180 4.8 4.8 0.00 2.90 2.90 87 1015.1
20260509200539 23 288 1.6 4.8 0.00 2.90 2.90 86 1015.2
20260509200036 23 178 0.0 3.2 0.00 2.90 2.90 87 1015.0
20260509195531 24 294 3.2 3.2 0.00 2.90 2.90 87 1015.2
20260509195032 24 200 3.2 4.8 0.00 2.90 2.90 84 1015.1
20260509194526 24 203 3.2 6.4 0.00 2.90 2.90 85 1015.2
20260509194024 24 281 3.2 3.2 0.00 2.90 2.90 83 1015.2
20260509193524 24 152 0.0 4.8 0.00 2.90 2.90 88 1015.1
20260509193022 24 143 0.0 8.0 0.00 2.90 2.90 85 1015.1
20260509192518 24 216 9.7 12.9 0.00 2.90 2.90 84 1015.1
20260509192013 24 193 0.0 4.8 0.00 2.90 2.90 87 1015.2
20260509191508 23 268 4.8 4.8 0.00 2.90 2.90 85 1015.1
20260509191004 23 210 0.0 6.4 0.00 2.90 2.90 88 1015.2
20260509190501 23 288 0.0 1.6 0.00 2.90 2.90 89 1015.2
20260509185959 23 189 0.0 1.6 0.00 2.90 2.90 88 1015.3
20260509185455 23 201 6.4 9.7 0.00 2.90 2.90 86 1015.5
20260509184952 23 192 4.8 9.7 0.00 2.90 2.90 85 1015.5
20260509184450 23 218 3.2 6.4 0.00 2.90 2.90 86 1015.3
20260509183946 23 221 0.0 3.2 0.00 2.90 2.90 88 1015.6
20260509183441 23 265 4.8 6.4 0.00 2.90 2.90 87 1015.7
20260509182937 23 227 6.4 9.7 0.00 2.90 2.90 86 1015.5
20260509182434 23 210 6.4 6.4 0.00 2.90 2.90 87 1015.4
20260509181931 23 245 3.2 9.7 0.00 2.90 2.90 86 1015.3
20260509181429 23 211 8.0 8.0 0.00 2.90 2.90 88 1015.2
20260509180926 23 213 4.8 6.4 0.00 2.90 2.90 87 1015.4
20260509180421 23 194 3.2 4.8 0.00 2.90 2.90 88 1015.5
20260509175919 22 230 1.6 3.2 0.00 2.90 2.90 91 1015.5
20260509175415 22 216 3.2 3.2 0.00 2.90 2.90 90 1015.8
20260509174912 22 228 8.0 9.7 0.00 2.90 2.90 90 1015.9
20260509174408 22 210 9.7 11.3 0.00 2.90 2.90 89 1015.7
20260509173904 22 208 6.4 6.4 0.00 2.90 2.90 90 1015.9
20260509173403 22 205 6.4 6.4 0.00 2.90 2.90 90 1015.9
20260509172900 22 198 3.2 4.8 0.00 2.90 2.90 89 1016.0
20260509172357 22 333 1.6 1.6 0.00 2.90 2.90 91 1016.1
20260509171853 22 322 1.6 3.2 0.00 2.90 2.90 90 1016.4
20260509171349 22 247 1.6 4.8 0.00 2.90 2.90 90 1016.2
20260509170846 22 301 0.0 3.2 0.00 2.90 2.90 90 1016.2
20260509170342 22 306 1.6 3.2 0.00 2.90 2.90 92 1016.3
20260509165842 21 330 0.0 4.8 0.00 2.90 2.90 92 1016.1
20260509165336 21 264 0.0 3.2 0.00 2.90 2.90 93 1016.2
20260509164833 21 258 3.2 4.8 0.00 2.90 2.90 93 1016.2
20260509164329 21 223 4.8 6.4 0.00 2.90 2.90 92 1016.1
20260509163825 21 221 4.8 6.4 0.00 2.90 2.90 94 1016.4
20260509163323 21 274 3.2 6.4 0.00 2.90 2.90 95 1016.1
20260509162822 21 228 3.2 4.8 0.00 2.90 2.90 96 1016.2
20260509162320 20 265 3.2 4.8 0.00 2.90 2.90 97 1016.2
20260509161817 20 285 3.2 3.2 0.00 2.90 2.90 97 1016.1
20260509161313 20 297 1.6 9.7 0.00 2.90 2.90 97 1016.2
20260509160809 20 291 3.2 3.2 0.00 2.90 2.90 98 1016.5
20260509160305 20 252 4.8 6.4 0.00 2.90 2.90 98 1016.3
20260509155800 20 332 3.2 4.8 0.00 2.90 2.90 98 1016.5
20260509155257 20 322 3.2 4.8 0.00 2.90 2.90 98 1016.6
20260509154753 20 267 1.6 4.8 0.00 2.90 2.90 98 1016.6
20260509154250 20 263 3.2 4.8 0.00 2.90 2.90 98 1016.5
20260509153747 20 300 3.2 3.2 0.05 2.90 2.90 98 1016.3
20260509153243 19 315 4.8 6.4 0.05 2.90 2.90 98 1016.4
20260509152740 19 307 4.8 4.8 0.00 2.90 2.90 98 1016.4
20260509152236 19 336 1.6 3.2 0.00 2.90 2.90 98 1016.3
20260509151733 19 282 3.2 4.8 0.00 2.90 2.90 98 1016.3
20260509151230 19 288 1.6 6.4 0.00 2.90 2.90 97 1016.2
20260509150728 19 331 6.4 9.7 0.00 2.90 2.90 97 1016.1
20260509150226 19 267 3.2 6.4 0.00 2.90 2.90 97 1016.1
20260509145723 19 303 3.2 9.7 0.00 2.90 2.90 97 1016.1
20260509145223 19 303 4.8 6.4 0.00 2.90 2.90 98 1016.2
20260509144719 19 295 3.2 4.8 0.00 2.90 2.90 98 1016.3
20260509144217 19 310 4.8 11.3 0.00 2.90 2.90 98 1016.3
20260509143714 19 327 3.2 6.4 0.00 2.90 2.90 98 1016.3
20260509143211 19 305 3.2 3.2 0.00 2.90 2.90 98 1016.6
20260509142706 19 346 1.6 4.8 0.00 2.90 2.90 99 1016.6
20260509142203 19 281 3.2 6.4 0.00 2.90 2.90 99 1016.4
20260509141659 19 334 3.2 4.8 0.00 2.90 2.90 99 1016.3
20260509141156 18 318 3.2 6.4 0.00 2.90 2.90 99 1016.2
20260509140652 18 334 3.2 4.8 0.00 2.90 2.90 99 1016.1
20260509140150 18 298 4.8 6.4 0.00 2.90 2.90 99 1016.1
20260509135647 18 292 3.2 4.8 0.00 2.90 2.90 99 1016.1
20260509135146 18 310 3.2 3.2 0.00 2.90 2.90 99 1016.1
20260509134642 18 298 3.2 3.2 0.00 2.90 2.90 99 1016.2
20260509134139 18 323 6.4 9.7 0.00 2.90 2.90 99 1016.3
20260509133636 18 320 4.8 8.0 0.00 2.90 2.90 99 1016.0
20260509133134 18 320 4.8 6.4 0.05 2.90 2.90 99 1015.9
20260509132632 18 311 6.4 14.5 0.00 2.87 2.87 99 1016.0
20260509132130 18 308 4.8 6.4 0.00 2.87 2.87 99 1015.8
20260509131626 18 312 4.8 6.4 0.00 2.87 2.87 99 1015.9
20260509131123 18 309 6.4 6.4 0.00 2.87 2.87 99 1015.6
20260509130619 18 312 3.2 4.8 0.00 2.87 2.87 99 1015.5
20260509130115 18 253 3.2 3.2 0.00 2.87 2.87 99 1015.5
20260509125612 18 314 1.6 3.2 0.00 2.87 2.87 99 1015.1
20260509125108 18 314 4.8 8.0 0.00 2.87 2.87 99 1015.2
20260509124605 18 329 11.3 11.3 0.00 2.87 2.87 99 1014.9
20260509124102 18 297 8.0 8.0 0.00 2.87 2.87 99 1014.7
20260509123600 17 298 3.2 8.0 0.00 2.87 2.87 99 1014.8
20260509123056 17 302 4.8 8.0 0.00 2.87 2.87 99 1014.6
20260509122552 17 310 1.6 6.4 0.00 2.87 2.87 99 1014.7
20260509122050 17 268 4.8 4.8 0.00 2.87 2.87 99 1014.9
20260509121546 17 302 3.2 4.8 0.00 2.87 2.87 99 1014.9
20260509121048 17 305 4.8 4.8 0.00 2.87 2.87 99 1014.8
20260509120542 17 317 4.8 4.8 0.00 2.87 2.87 99 1014.8
20260509120040 17 291 3.2 3.2 0.00 2.87 2.87 99 1015.1
20260509115536 17 271 3.2 3.2 0.00 2.87 2.87 99 1014.8
20260509115034 17 278 3.2 4.8 0.00 2.87 2.87 99 1015.0
20260509114532 17 312 4.8 4.8 0.00 2.87 2.87 99 1015.1
20260509114031 17 262 3.2 4.8 0.00 2.87 2.87 99 1014.9
20260509113529 17 309 4.8 4.8 0.00 2.87 2.87 99 1014.9
20260509113027 17 305 4.8 4.8 0.00 2.87 2.87 99 1015.1
20260509112523 17 315 4.8 6.4 0.05 2.87 2.87 99 1015.0
20260509112019 17 290 1.6 3.2 0.13 2.87 2.87 99 1015.4
20260509111517 17 237 4.8 6.4 0.05 2.87 2.87 99 1015.1
20260509111014 17 268 3.2 4.8 0.05 2.87 2.87 99 1014.7
20260509110510 17 274 3.2 3.2 0.05 2.87 2.87 99 1014.5
20260509110008 17 256 3.2 4.8 0.05 2.84 2.84 99 1014.5
20260509105506 17 243 4.8 4.8 0.13 2.84 2.84 99 1014.2
20260509105003 17 259 3.2 4.8 0.05 2.84 2.84 99 1014.2